This demonstration page uses our WeatherBlox Daily Observations layout. Learn more.

Left ArrowRight Arrow

39.12711, -84.51439

Hourly Observations for September 10, 2021

Temp ( °F °C ) Dew Point ( °F °C ) Humidity (%) Winds ( mph kmh ) Pressure ( in mb ) Visibility ( mi km ) Precip ( " mm )
12:53 am 00:53 Clear 57 13.9 55 12.8 93 93 Calm 30.05 1018 10 16 0.00 0.00
1:53 am 01:53 Clear 56 13.3 54 12.2 93 93 Calm 30.06 1018 10 16 0.00 0.00
2:53 am 02:53 Clear 55 12.8 54 12.2 96 96 Calm 30.06 1018 10 16 0.00 0.00
3:53 am 03:53 Clear 54 12.2 53 11.7 97 97 NE 3 6 30.07 1018 10 16 0.00 0.00
4:53 am 04:53 Clear 53 11.7 52 11.1 96 96 NE 3 6 30.08 1019 10 16 0.00 0.00
5:53 am 05:53 Clear 54 12.2 53 11.7 97 97 Calm 30.09 1019 10 16 0.00 0.00
6:53 am 06:53 Clear with Patchy Fog 52 11.1 51 10.6 97 97 Calm 30.11 1020 10 16 0.00 0.00
7:53 am 07:53 Sunny with Patchy Fog 53 11.7 52 11.1 96 96 NE 5 7 30.13 1020 10 16 0.00 0.00
8:53 am 08:53 Sunny 58 14.4 56 13.3 93 93 NE 3 6 30.13 1020 10 16 0.00 0.00
9:53 am 09:53 Sunny 64 17.8 57 13.9 78 78 Calm 30.14 1021 10 16 0.00 0.00
10:53 am 10:53 Sunny 69 20.6 56 13.3 63 63 Calm 30.15 1021 10 16 0.00 0.00
11:53 am 11:53 Sunny 72 22.2 51 10.6 48 48 SSE 3 6 30.15 1021 10 16 0.00 0.00
12:53 pm 12:53 Sunny 77 25 49 9.4 37 37 NNW 7 11 30.14 1021 10 16 0.00 0.00
1:53 pm 13:53 Mostly Sunny 77 25 49 9.4 37 37 VRB 3 6 30.12 1020 10 16 0.00 0.00
2:53 pm 14:53 Partly Cloudy 77 25 47 8.3 35 35 NNW 5 7 30.11 1020 10 16 0.00 0.00
3:53 pm 15:53 Mostly Sunny 79 26.1 48 8.9 34 34 NNW 5 7 30.09 1019 10 16 0.00 0.00
4:53 pm 16:53 Mostly Cloudy 77 25 48 8.9 36 36 N 6 9 30.09 1019 10 16 0.00 0.00
5:53 pm 17:53 Mostly Cloudy 73 22.8 60 15.6 64 64 Calm 30.08 1019 10 16 0.00 0.00
6:53 pm 18:53 Mostly Cloudy 74 23.3 53 11.7 48 48 ESE 5 7 30.08 1019 10 16 0.00 0.00
7:53 pm 19:53 Partly Cloudy 69 20.6 57 13.9 66 66 SE 3 6 30.08 1019 10 16 0.00 0.00
8:53 pm 20:53 Partly Cloudy 63 17.2 57 13.9 81 81 Calm 30.09 1019 10 16 0.00 0.00
9:53 pm 21:53 Clear 60 15.6 56 13.3 86 86 Calm 30.11 1020 10 16 0.00 0.00
10:53 pm 22:53 Clear 59 15 56 13.3 90 90 Calm 30.12 1020 10 16 0.00 0.00
11:53 pm 23:53 Clear 57 13.9 55 12.8 93 93 Calm 30.13 1020 10 16 0.00 0.00

Powered by AerisWeather